Date String (YYYY-MM-DD hh:mm:ss) UTC,Instrument flags,absolute air pressure of the measurement (hPa),sample flow rate (lpm),inlet stack bypass flow (lpm),air temperature of the measurement (°C),ambient temperature measured by the external sensor (°C),aerosol sample conditioner tube jacket temperature (°C),OPC LED temperature (°C),internal box temperature (°C),relative humidity of the measurement (%),span deviation,mass concentration of particles derived from Lorenz-Mie calculation of OPC scattering (μg/m³),mass concentration of particles derived from Lorenz-Mie calculation of OPC scattering (μg/m³),mass concentration of particles derived from Lorenz-Mie calculation of OPC scattering (μg/m³)
DateTimeUTC,F1_M11,P_M11,Q1_M11,Q2_M11,T1_M11,T2_M11,T3_M11,T4_M11,T5_M11,U1_M11,ZSPAN_M11,X2_M11,X0_M11,X1_M11
2023-12-26 08:00:00,SystemResetWarning,0823.8,5.00,000.00,018.7,017.6,000.0,027.2,020.0,8.3,0000.0,0002.37,0003.01,0002.13
2023-12-26 08:01:00,SystemResetWarning,0823.8,5.00,000.00,018.7,017.6,000.0,027.2,020.0,8.2,0000.0,0002.35,0002.98,0002.11
2023-12-26 08:02:00,SystemResetWarning,0823.8,5.00,000.00,018.7,017.5,000.0,027.2,020.0,8.2,0000.0,0002.33,0002.99,0002.10
2023-12-26 08:03:00,SystemResetWarning,0823.8,5.00,000.00,018.7,017.5,000.0,027.2,020.0,8.2,0000.0,0002.31,0003.80,0002.08
2023-12-26 08:04:00,SystemResetWarning,0823.8,5.00,000.00,018.7,017.5,000.0,027.2,020.0,8.3,0000.0,0002.30,0003.80,0002.06
2023-12-26 08:05:00,SystemResetWarning,0823.8,5.02,000.00,018.7,017.5,000.0,027.2,020.0,8.4,0000.0,0002.29,0004.27,0002.06
2023-12-26 08:06:00,SystemResetWarning,0823.8,5.00,000.00,018.7,017.5,000.0,027.2,020.1,8.3,0000.0,0002.22,0004.34,0002.05
2023-12-26 08:07:00,SystemResetWarning,0823.8,5.00,000.00,018.8,017.9,000.0,027.2,020.4,8.3,0000.0,0002.19,0004.17,0002.05
2023-12-26 08:08:00,SystemResetWarning,0823.8,5.00,000.00,018.9,018.7,000.0,027.2,020.8,8.4,0000.0,0002.17,0004.12,0002.04
2023-12-26 08:09:00,SystemResetWarning,0823.8,4.99,000.00,019.0,019.0,000.0,027.2,020.7,8.7,0000.0,0002.18,0004.15,0002.04
2023-12-26 08:10:00,SystemResetWarning,0823.7,4.99,000.00,019.0,018.9,000.0,027.2,020.5,8.6,0000.0,0002.19,0004.22,0002.04
2023-12-26 08:11:00,SystemResetWarning,0823.7,5.00,000.00,019.0,018.8,000.0,027.2,020.3,8.9,0000.0,0002.21,0004.24,0002.06
2023-12-26 08:12:00,SystemResetWarning,0823.7,5.01,000.00,019.0,018.7,000.0,027.2,020.2,8.9,0000.0,0002.19,0004.20,0002.06
2023-12-26 08:13:00,SystemResetWarning,0823.7,5.00,000.00,019.0,018.5,000.0,027.2,020.2,9.0,0000.0,0002.21,0004.25,0002.06
2023-12-26 08:14:00,SystemResetWarning,0823.6,5.00,000.00,018.9,018.4,000.0,027.2,020.1,9.0,0000.0,0002.21,0003.81,0002.06
2023-12-26 08:15:00,SystemResetWarning,0823.6,5.00,000.00,018.9,018.3,000.0,027.2,020.1,9.1,0000.0,0002.24,0005.08,0002.07
2023-12-26 08:16:00,SystemResetWarning,0823.6,5.00,000.00,018.9,018.2,000.0,027.2,020.0,9.2,0000.0,0002.23,0004.90,0002.07
2023-12-26 08:17:00,SystemResetWarning,0823.6,5.00,000.00,018.8,018.1,000.0,027.2,020.0,8.9,0000.0,0002.23,0004.51,0002.07
2023-12-26 08:18:00,SystemResetWarning,0823.6,4.99,000.00,018.8,018.1,000.0,027.2,020.0,8.7,0000.0,0002.28,0005.03,0002.08
2023-12-26 08:19:00,SystemResetWarning,0823.6,4.99,000.00,018.8,018.0,000.0,027.2,020.0,8.9,0000.0,0002.30,0005.45,0002.08
2023-12-26 08:20:00,SystemResetWarning,0823.5,5.00,000.00,018.8,017.9,000.0,027.2,020.0,9.1,0000.0,0002.30,0005.45,0002.08
2023-12-26 08:21:00,SystemResetWarning,0823.6,4.99,000.00,018.8,017.9,000.0,027.2,020.0,9.2,0000.0,0002.30,0005.41,0002.08
2023-12-26 08:22:00,SystemResetWarning,0823.5,5.00,000.00,018.8,017.8,000.0,027.2,020.0,8.9,0000.0,0002.28,0005.36,0002.08
2023-12-26 08:23:00,SystemResetWarning,0823.5,5.01,000.00,018.8,017.8,000.0,027.3,020.0,8.8,0000.0,0002.28,0005.34,0002.08
2023-12-26 08:24:00,SystemResetWarning,0823.5,5.01,000.00,018.8,017.7,000.0,027.3,020.0,8.8,0000.0,0002.27,0005.34,0002.07
2023-12-26 08:25:00,SystemResetWarning,0823.5,5.00,000.00,018.8,017.7,000.0,027.3,020.0,8.9,0000.0,0002.26,0006.73,0002.06
2023-12-26 08:26:00,SystemResetWarning,0823.5,4.99,000.00,018.7,017.6,000.0,027.2,020.0,9.5,0000.0,0002.23,0005.22,0002.05
2023-12-26 08:27:00,SystemResetWarning,0823.5,5.00,000.00,018.7,017.6,000.0,027.2,020.0,10.0,0000.0,0002.22,0005.07,0002.04
2023-12-26 08:28:00,SystemResetWarning,0823.5,4.99,000.00,018.7,017.5,000.0,027.2,020.0,10.2,0000.0,0002.22,0005.06,0002.04
2023-12-26 08:29:00,SystemResetWarning,0823.5,5.00,000.00,018.7,017.5,000.0,027.2,020.0,9.5,0000.0,0002.18,0004.59,0002.03
2023-12-26 08:30:00,SystemResetWarning,0823.5,5.00,000.00,018.7,017.5,000.0,027.2,020.0,8.3,0000.0,0002.16,0004.18,0002.03
2023-12-26 08:31:00,SystemResetWarning,0823.5,5.00,000.00,018.7,017.6,000.0,027.2,020.0,8.2,0000.0,0002.17,0004.21,0002.03
2023-12-26 08:32:00,SystemResetWarning,0823.5,5.00,000.00,018.7,017.6,000.0,027.2,020.0,8.4,0000.0,0002.15,0004.25,0002.02
2023-12-26 08:33:00,SystemResetWarning,0823.5,5.00,000.00,018.7,017.5,000.0,027.2,020.0,8.3,0000.0,0002.14,0004.23,0002.02
2023-12-26 08:34:00,SystemResetWarning,0823.5,5.00,000.00,018.7,017.5,000.0,027.2,020.0,8.0,0000.0,0002.14,0004.22,0002.02
2023-12-26 08:35:00,SystemResetWarning,0823.5,5.01,000.00,018.7,017.5,000.0,027.2,020.0,7.8,0000.0,0002.13,0004.20,0002.02
2023-12-26 08:36:00,SystemResetWarning,0823.5,5.01,000.00,018.7,017.4,000.0,027.2,020.0,7.7,0000.0,0002.16,0002.88,0002.04
2023-12-26 08:37:00,SystemResetWarning,0823.4,5.00,000.00,018.7,017.6,000.0,027.2,020.2,7.6,0000.0,0002.17,0002.68,0002.04
2023-12-26 08:38:00,SystemResetWarning,0823.5,4.99,000.00,018.8,018.4,000.0,027.2,020.6,7.8,0000.0,0002.19,0002.71,0002.05
2023-12-26 08:39:00,SystemResetWarning,0823.5,5.00,000.00,019.0,019.0,000.0,027.2,020.8,8.0,0000.0,0002.23,0002.77,0002.07
2023-12-26 08:40:00,SystemResetWarning,0823.5,5.00,000.00,019.0,019.0,000.0,027.2,020.5,8.2,0000.0,0002.25,0003.09,0002.09
2023-12-26 08:41:00,SystemResetWarning,0823.5,5.00,000.00,019.0,018.9,000.0,027.2,020.3,8.0,0000.0,0002.27,0003.13,0002.10
2023-12-26 08:42:00,SystemResetWarning,0823.4,4.99,000.00,019.0,018.7,000.0,027.2,020.2,8.0,0000.0,0002.30,0003.37,0002.12
2023-12-26 08:43:00,SystemResetWarning,0823.4,4.99,000.00,019.0,018.6,000.0,027.2,020.1,8.2,0000.0,0002.31,0003.52,0002.13
2023-12-26 08:44:00,SystemResetWarning,0823.4,5.00,000.00,018.9,018.4,000.0,027.2,020.1,8.1,0000.0,0002.34,0003.55,0002.15
2023-12-26 08:45:00,SystemResetWarning,0823.4,5.01,000.00,018.9,018.3,000.0,027.2,020.0,8.0,0000.0,0002.35,0003.58,0002.16
2023-12-26 08:46:00,SystemResetWarning,0823.4,5.00,000.00,018.9,018.2,000.0,027.2,020.0,8.3,0000.0,0002.37,0003.61,0002.17
2023-12-26 08:47:00,SystemResetWarning,0823.4,5.00,000.00,018.8,018.1,000.0,027.2,020.0,8.2,0000.0,0002.35,0003.59,0002.17
2023-12-26 08:48:00,SystemResetWarning,0823.3,5.00,000.00,018.8,018.0,000.0,027.2,020.0,8.2,0000.0,0002.36,0003.60,0002.17
2023-12-26 08:49:00,SystemResetWarning,0823.3,5.00,000.00,018.8,017.9,000.0,027.2,020.0,8.1,0000.0,0002.37,0003.64,0002.17
2023-12-26 08:50:00,SystemResetWarning,0823.3,5.00,000.00,018.8,017.8,000.0,027.2,020.0,7.7,0000.0,0002.35,0003.62,0002.17
2023-12-26 08:51:00,SystemResetWarning,0823.3,5.00,000.00,018.8,017.8,000.0,027.2,020.0,7.0,0000.0,0002.36,0003.37,0002.16
2023-12-26 08:52:00,SystemResetWarning,0823.3,5.00,000.00,018.8,017.7,000.0,027.2,020.0,7.0,0000.0,0002.35,0003.30,0002.15
2023-12-26 08:53:00,SystemResetWarning,0823.3,5.00,000.00,018.8,017.7,000.0,027.2,020.0,7.2,0000.0,0002.33,0003.09,0002.14
2023-12-26 08:54:00,SystemResetWarning,0823.3,5.00,000.00,018.8,017.7,000.0,027.2,020.0,7.4,0000.0,0002.31,0002.84,0002.13
2023-12-26 08:55:00,SystemResetWarning,0823.3,4.99,000.00,018.7,017.6,000.0,027.2,020.0,7.3,0000.0,0002.29,0002.84,0002.09
2023-12-26 08:56:00,SystemResetWarning,0823.3,5.00,000.00,018.7,017.6,000.0,027.2,020.0,7.4,0000.0,0002.28,0002.84,0002.08
2023-12-26 08:57:00,SystemResetWarning,0823.4,5.01,000.00,018.7,017.6,000.0,027.2,020.0,7.9,0000.0,0002.27,0002.80,0002.08
2023-12-26 08:58:00,SystemResetWarning,0823.4,5.00,000.00,018.7,017.5,000.0,027.2,020.0,7.6,0000.0,0002.26,0002.76,0002.07
2023-12-26 08:59:00,SystemResetWarning,0823.3,5.01,000.00,018.7,017.5,000.0,027.2,020.0,7.6,0000.0,0002.26,0002.80,0002.06
